This is the latest recevied weather packets stored in our database for station/object WMKP. If no packets are shown the sender has not sent any weather packets the latest 10 day(s).
| Time | Temp. | Humidity | Pressure | Rain* | Wind** | Luminosity | Snow |
|---|---|---|---|---|---|---|---|
| 1777772404 | 28.89° C | 79% | 1010 hPa | - | - | - | - |
| 1777770618 | 28.89° C | 79% | 1009 hPa | - | - | - | - |
| 1777768800 | 27.78° C | 83% | 1009 hPa | - | - | - | - |
| 1777767026 | 26.67° C | 83% | 1009 hPa | - | - | - | - |
| 1777765200 | 25.56° C | 88% | 1008 hPa | - | - | - | - |
| 1777763420 | 25.56° C | 88% | 1008 hPa | - | - | - | - |
| 1777761601 | 25.56° C | 88% | 1008 hPa | - | - | - | - |
| 1777759818 | 26.67° C | 83% | 1008 hPa | - | - | - | - |
| 1777758003 | 26.67° C | 83% | 1007 hPa | - | - | - | - |
| 1777756218 | 26.67° C | 83% | 1007 hPa | - | - | - | - |
| 1777754400 | 26.67° C | 83% | 1007 hPa | - | - | - | - |
| 1777752618 | 26.67° C | 83% | 1007 hPa | - | - | - | - |
| 1777750801 | 26.67° C | 78% | 1007 hPa | - | - | - | - |
| 1777749030 | 26.67° C | 83% | 1008 hPa | - | - | - | - |
| 1777747203 | 26.67° C | 83% | 1008 hPa | - | - | - | - |
| 1777745418 | 26.67° C | 78% | 1009 hPa | - | - | - | - |
| 1777743603 | 26.67° C | 78% | 1009 hPa | - | - | - | - |
| 1777741817 | 26.67° C | 78% | 1010 hPa | - | - | - | - |
| 1777740618 | 26.67° C | 78% | 1010 hPa | - | - | - | - |
| 1777740032 | 24.44° C | 93% | 1011.1 hPa | - | - | - | - |
| 1777738218 | 26.67° C | 83% | 1010 hPa | - | - | - | - |
| 1777736400 | 26.67° C | 83% | 1010 hPa | - | - | - | - |
| 1777734617 | 26.67° C | 83% | 1010 hPa | - | - | - | - |
| 1777732800 | 27.78° C | 78% | 1009 hPa | - | - | - | - |
| 1777732192 | 27.78° C | 74% | 1009 hPa | - | - | - | - |
* Rain since midnight (hover to see other rain measurements)
** Current wind speed in m/s (hover to see current wind gust speed)